Regional Weather Roundup
Issued by NWS Midland/Odessa, TX

Skip options and go directly to product.
Home | Oldest Version | Next Version | Current Version | All | Text Only | Save Text | Print | Product List | Glossary On

Skip product version selection by date and time.   
692
ASUS44 KMAF 230801
RWRMAF
MIDLAND AREA WEATHER ROUNDUP
NATIONAL WEATHER SERVICE MIDLAND TX
300 AM CDT TUE AUG 23 2016

...IN SOUTHWEST TEXAS AND SOUTHEAST NEW MEXICO...

CITY           SKY/WX    TMP DP  RH WIND       PRES   REMARKS
ALPINE         CLOUDY    69  63  82 S7        30.24S
ANDREWS        FAIR      73  67  83 S9        30.10F
ARTESIA        CLOUDY    70  70 100 MISG      30.08S
BIG SPRING     MOCLDY    73  68  86 SE9       30.10S
CARLSBAD       CLOUDY    72  66  81 SE7       30.06R
DRYDEN           N/A     75  70  84 SE5       30.06F
FORT STOCKTON  PTCLDY    74  65  73 S10       30.08F
GUAD PASS      CLOUDY    65  61  87 SW17      30.22F
HOBBS          CLOUDY    72  70  94 SE10      30.11F
MARFA          LGT RAIN N/A N/A N/A SE5       30.23R
MIDLAND AIRPK  CLOUDY    75  68  79 S7        30.09S
MIDLAND INTL   CLOUDY    75  67  76 S9        30.08F
ODESSA         CLOUDY    76  67  73 S17       30.09F
PECOS          MOCLDY    77  66  69 SE8       30.04F
PRESIDIO       FAIR      78  66  68 NE7       30.08S
SEMINOLE       PTCLDY    72  66  81 S8        30.11S
SNYDER           N/A     72  70  93 SE8       30.09F
WINK           CLOUDY    75  66  73 SE13      30.04F
$$
...OTHER STATIONS IN TEXAS...

CITY           SKY/WX    TMP DP  RH WIND       PRES   REMARKS
ABILENE        CLOUDY    74  69  85 S15       30.07F
AMARILLO       CLOUDY    70  66  87 S10       30.09F
AUSTIN         CLOUDY    79  77  94 S13       30.09F
BROWNSVILLE    PTCLDY    80  76  87 SE7       30.08S
CORPUS CHRISTI MOCLDY    82  79  90 SE9       30.08R
DALLAS FTW     MOCLDY    79  74  84 S12       30.06S
DEL RIO        CLEAR     79  74  84 E10       30.04S
EL PASO        MOCLDY    71  60  68 S6        30.11S
HOUSTON INT    PTCLDY    76  75  97 E5        30.11F
LUBBOCK        MOCLDY    70  67  90 S12       30.09F
SAN ANGELO     MOCLDY    78  70  76 S17       30.07S
SAN ANTONIO    CLOUDY    78  75  90 S16       30.11S
WACO           PTCLDY    78  76  93 S14       30.09S
WICHITA FALLS  NOT AVBL
$$
...OTHER LOCATIONS IN NEW MEXICO...

CITY           SKY/WX    TMP DP  RH WIND       PRES   REMARKS
ALAMAGORDO     CLEAR     70  57  64 S10       30.12S
ALBUQUERQUE    CLOUDY    64  59  83 NE5       30.18F
CANNON AFB     CLEAR     65  65  98 S9        30.13S
CLOVIS         CLEAR     64  59  82 S7        30.13S
HOLLOMAN AFB   CLEAR     72  57  58 S14       30.09S
ROSWELL        CLOUDY    69  64  84 S7        30.07F
RUIDOSO          N/A     61  55  82 W8        30.28F
SANTA FE       CLEAR     53  51  93 N6        30.23S
TRUTH OR CONSE PTCLDY    64  56  75 W7        30.14S
TUCUMCARI      CLEAR     65  61  87 S7        30.06F
$$

USA.gov is the U.S. government's official web portal to all federal, state and local government web resources and services.